RH
32 38 42 50 54 57 64 63 66 92 86 82 82 97 99 100 99 97 100 100 95 99 94 82 81 61 92 92 82 77 76 74
30 41 48 52 59 61 64 62 59 94 82 87 86 99 100 99 99 99 100 100 96 94 89 86 64 49 59 70 78 76 78 80
31 40 48 51 57 59 63 61 54 95 99 91 85 82 100 98 100 99 98 97 99 96 86 86 59 45 55 61 65 73 78 80
31 36 42 48 59 57 60 60 55 86 99 94 89 90 100 100 99 100 100 91 84 80 87 88 56 38 36 50 63 66 73 80
30 39 42 45 50 59 59 61 59 71 100 85 83 84 98 98 99 100 100 100 99 95 90 86 80 43 35 33 51 52 73 76
28 28 31 43 49 56 60 66 62 56 100 96 91 92 92 96 90 96 100 100 100 100 97 84 99 80 46 26 25 46 76 73
36 48 51 49 49 57 62 64 63 51 79 99 98 94 93 90 94 97 100 100 100 100 98 100 93 88 60 32 34 42 73 68
22 48 55 51 47 56 60 61 60 46 61 98 99 99 99 98 99 98 99 100 99 99 99 97 92 95 80 48 62 55 53 67
22 29 42 44 52 54 56 59 61 51 55 91 100 100 100 100 96 96 95 96 98 100 100 97 94 93 93 82 56 72 73 72
27 40 52 52 55 55 58 63 66 58 53 70 91 98 100 99 99 99 99 99 99 95 100 100 97 94 99 93 87 79 82 82
60 77 84 89 85 72 68 64 65 61 60 59 69 89 99 100 100 97 96 99 99 99 100 100 100 100 99 97 97 87 90 87
85 99 100 100 100 98 85 72 69 72 71 69 71 76 85 94 98 99 99 100 100 99 98 98 98 96 95 100 100 97 90 76
100 100 100 99 100 99 90 76 76 78 80 82 81 80 79 79 88 88 91 98 100 100 100 100 96 95 89 86 89 92 93 96
100 100 100 99 100 100 100 99 96 96 97 96 91 89 87 80 74 76 84 84 86 95 98 99 100 98 96 91 87 86 86 85
100 100 100 100 100 100 100 100 100 98 98 98 99 99 97 96 92 88 85 80 84 87 88 90 88 91 97 95 91 90 90 85
82 88 93 96 96 97 98 96 99 96 100 100 99 99 100 100 100 99 100 98 94 91 90 91 94 98 100 100 99 97 88 87
81 71 66 67 70 74 80 82 98 100 98 99 99 100 100 100 99 99 99 100 100 100 100 100 100 98 95 94 95 99 100 100
89 82 73 67 58 55 54 57 65 68 77 88 96 97 98 99 98 99 100 100 100 100 100 100 100 99 99 100 100 100 100 98
85 84 78 71 64 60 56 54 55 52 49 49 51 55 63 73 87 93 96 94 97 99 100 100 100 100 100 100 100 100 100 100
Wind_Speed
42 39 35 28 25 20 18 15 16 17 17 15 16 15 17 17 16 21 27 37 36 40 35 36 34 40 42 40 38 34 31 25
41 42 34 30 27 24 20 18 17 19 20 20 19 15 16 15 11 11 25 43 43 34 34 36 36 42 44 43 40 36 29 26
35 40 36 33 32 27 23 19 17 20 20 19 19 18 17 14 14 16 20 20 27 25 30 33 36 37 40 42 42 39 33 29
36 36 36 37 37 31 25 20 17 19 21 19 18 18 17 15 16 22 24 28 28 32 31 33 33 37 40 43 46 46 42 33
32 34 36 41 38 33 26 21 18 18 23 20 19 18 20 20 20 21 25 31 27 33 35 37 31 34 35 40 43 43 41 37
28 34 37 41 38 33 28 22 18 19 22 22 20 21 18 18 19 21 27 28 30 27 33 36 36 36 37 37 39 45 39 38
21 28 34 38 37 33 30 25 19 18 21 23 24 22 23 22 21 22 25 26 30 31 28 38 33 34 37 37 35 40 42 37
24 32 36 40 39 35 32 26 20 18 19 21 23 23 24 23 23 25 23 24 28 33 35 34 32 31 36 37 39 36 39 40
27 32 37 41 39 36 32 27 21 17 16 17 19 19 19 18 16 17 20 22 28 24 37 36 34 33 35 41 39 40 39 38
28 33 35 39 39 36 32 26 20 16 14 15 16 16 17 14 12 12 13 17 19 24 26 38 34 34 32 37 41 44 47 45
16 24 27 30 31 32 30 23 16 13 11 11 11 13 14 15 14 13 13 15 19 21 21 33 33 32 31 35 38 39 39 43
11 15 19 21 24 25 24 20 16 14 10 10 10 10 12 13 16 14 14 15 18 22 23 28 29 31 32 34 35 38 41 44
21 16 16 17 17 16 15 14 13 11 9 8 9 8 10 11 15 15 15 15 16 21 26 28 29 30 30 32 33 35 38 38
31 31 28 24 18 13 10 10 11 11 11 11 10 10 8 10 9 13 17 18 19 22 24 29 31 31 33 37 39 39 41 43
30 30 29 27 23 18 14 10 9 10 9 10 12 12 11 11 12 13 14 15 20 25 28 32 34 36 39 41 43 44 46 49
28 29 27 26 23 19 15 10 6 4 13 16 15 16 13 13 13 14 17 20 22 24 26 29 33 36 40 42 43 46 51 52
21 24 25 24 20 17 15 11 7 9 9 8 9 10 14 15 16 19 19 20 19 22 27 31 33 34 36 36 38 44 48 50
17 20 22 18 19 18 15 13 10 8 6 6 7 6 7 9 13 16 18 21 24 27 28 31 35 35 36 36 36 41 44 45
14 15 17 14 15 13 12 10 10 9 9 7 6 3 2 7 11 13 15 17 20 22 26 28 28 29 33 36 41 43 46 48
Wind_Direction
233 231 229 225 220 220 220 227 224 216 197 202 218 220 216 220 228 230 220 203 205 203 200 201 197 193 196 197 196 193 194 193
235 234 228 222 217 217 221 230 222 204 195 205 213 211 204 211 214 215 209 205 204 201 202 201 200 196 196 197 198 195 189 192
233 232 224 221 217 215 220 230 224 211 204 207 217 212 201 206 192 196 181 186 187 201 198 200 201 196 196 197 199 194 195 194
223 224 219 215 214 215 217 226 226 212 203 211 219 206 209 211 203 203 189 180 188 199 199 204 203 200 200 200 200 203 198 191
222 220 216 214 215 213 215 221 225 217 206 209 226 216 206 211 204 206 211 205 201 203 200 206 207 206 208 206 205 207 207 197
224 224 222 215 213 211 211 215 223 225 209 211 219 221 223 218 224 217 221 222 221 219 212 204 209 209 209 209 207 205 208 213
234 226 216 214 213 209 209 212 220 228 218 213 215 220 223 228 230 236 242 234 229 225 223 209 206 211 208 212 210 209 208 219
233 225 213 213 213 206 209 210 218 224 223 220 220 220 225 235 240 243 243 242 231 233 226 219 215 215 209 211 213 210 220 222
224 223 217 213 211 207 208 211 213 217 224 227 225 227 229 232 228 230 233 232 231 232 225 221 224 222 220 216 218 218 215 227
224 220 215 210 207 206 206 208 211 215 221 225 231 228 229 227 228 230 237 227 225 228 230 225 226 226 226 220 220 223 226 229
193 205 204 202 199 199 203 207 213 217 221 222 224 225 235 241 238 234 232 225 227 237 236 222 228 230 230 227 226 229 231 232
149 169 171 175 184 192 198 200 210 215 222 220 226 230 236 239 244 248 247 236 220 229 226 226 229 231 233 240 227 233 234 239
103 135 154 163 173 182 194 200 212 225 235 230 232 232 236 247 241 244 249 246 235 230 231 228 230 233 235 241 242 242 241 242
86 101 108 123 131 138 157 185 216 231 239 242 247 253 252 249 250 242 239 243 245 238 236 237 242 248 250 247 247 249 249 249
82 95 99 108 116 126 134 160 199 221 230 236 246 255 260 260 257 254 253 248 243 244 246 248 249 255 257 257 257 257 255 255
71 83 88 95 103 110 116 115 117 198 214 213 227 238 249 261 267 265 260 253 251 251 251 252 254 256 256 255 255 255 254 256
68 76 84 90 94 98 99 109 118 128 155 176 209 233 234 236 241 246 253 264 269 267 263 261 261 263 266 266 265 263 262 262
71 72 77 82 82 86 92 101 108 127 146 159 176 195 220 235 240 246 249 248 249 252 257 265 272 280 286 286 282 270 265 266
56 61 70 71 79 81 82 81 74 76 85 89 91 103 212 234 239 240 243 247 253 254 254 254 254 256 257 258 261 263 268 271